COSMOS 2477 (745)

Last updated on Oct. 24, 2020, 5:55 a.m. UTC

1 37868U 11064B   20297.79060898  .00000046  00000-0  00000-0 0  9991
2 37868  64.5466 142.8743 0015890 234.0935 110.7888  2.13101830 69819
UTC
Height (km)
Latitude
Longitude
Inclination
Orbital Period
UTC large
Height (km)
Speed (km/s)
/
Latitude / Longitude
Inclination (degrees)
Orbital Period (minutes)
Azimuth
Elevation
Range (km)
Doppler Factor
iOS Compass Heading
iOS Angle

Next 30 passes for location: Hong Kong

Rise time Rise Azimuth (degrees) Set time Set Azimuth (degrees) Duration Max altitude (degrees)

No matching passes for this satellites